JA3VQW-13 Hirakata JP current weather conditions

sailwx.info

Wind from 084 at 46 knots

Air temperature 22.8° C
Dewpoint 5.7° C

Last reported at 2018-Apr-20 02:02 UTC.
Time now 2018-Apr-20 02:45 UTC

Location: N 34°48' E 135°40'.
View on Google Maps.

See reports from other nearby stations

  
Tides and Currents Weather Stations Pressure Air Temp Water Temp Dewpoint Dewpoint Depression Visibility Wind Speed Wind Dir Waves Ship Positions
date/time (UTC)wind fromknots sea level pressurealtimeterstation pressurevisibilityair tempwater tempwave heightnotes
2018-Apr-20 02:02 084 46 22.8
2018-Apr-20 01:32 315 46 21.7
2018-Apr-20 01:02 315 46 20.0
2018-Apr-20 00:32 248 46 19.4
2018-Apr-20 00:02 090 46 18.9
2018-Apr-19 23:32 248 46 17.8
2018-Apr-19 23:02 248 46 16.7
2018-Apr-19 22:55 225 46 16.1
2018-Apr-19 22:32 225 46 15.6
2018-Apr-19 22:02 225 46 14.4
2018-Apr-19 21:55 180 46 14.4
2018-Apr-19 21:32 180 46 14.4
2018-Apr-19 21:10 180 46 13.9
2018-Apr-19 21:02 180 46 13.9
2018-Apr-19 20:32 112 46 13.9
2018-Apr-19 20:25 112 46 13.9
2018-Apr-19 20:02 112 46 13.9
2018-Apr-19 19:32 112 46 14.4
2018-Apr-19 19:02 112 46 14.4
2018-Apr-19 18:32 112 46 15.0
2018-Apr-19 18:02 112 46 15.0
2018-Apr-19 17:32 112 46 15.0
2018-Apr-19 17:10 135 46 15.0
2018-Apr-19 17:02 135 46 15.0
2018-Apr-19 16:32 135 46 15.6
2018-Apr-19 16:25 135 46 15.6
2018-Apr-19 16:02 135 46 15.6
2018-Apr-19 15:40 135 46 16.1
2018-Apr-19 15:32 135 46 16.1
2018-Apr-19 15:25 135 46 16.1
2018-Apr-19 15:02 135 46 16.1
2018-Apr-19 14:32 135 46 16.7
2018-Apr-19 14:02 180 46 16.7
2018-Apr-19 13:32 180 46 17.2
2018-Apr-19 13:02 180 46 17.8
2018-Apr-19 12:32 225 46 17.8
2018-Apr-19 12:10 133 46 18.3
2018-Apr-19 12:02 221 46 18.3
2018-Apr-19 11:32 237 46 gusting 1 18.3
2018-Apr-19 11:02 285 46 gusting 2 18.9
2018-Apr-19 10:32 260 46 gusting 4 18.9
2018-Apr-19 10:02 085 46 gusting 1 19.4
2018-Apr-19 09:32 311 46 gusting 1 20.0
2018-Apr-19 09:02 245 46 gusting 4 21.7
2018-Apr-19 08:32 315 46 23.9
2018-Apr-19 08:02 261 46 gusting 4 23.9
2018-Apr-19 07:32 162 46 gusting 4 24.4
2018-Apr-19 07:02 263 46 gusting 5 24.4
2018-Apr-19 06:55 184 46 gusting 4 24.4
2018-Apr-19 06:32 201 46 gusting 6 25.0
2018-Apr-19 06:02 250 46 gusting 4 25.0
2018-Apr-19 05:32 296 46 gusting 7 25.0
2018-Apr-19 05:02 269 46 gusting 4 25.0
2018-Apr-19 04:32 302 46 gusting 5 24.4
2018-Apr-19 04:02 288 46 gusting 6 24.4
2018-Apr-19 03:32 309 46 gusting 6 23.9
2018-Apr-19 03:25 289 46 gusting 5 23.9
2018-Apr-19 03:02 310 46 gusting 6 22.8
2018-Apr-19 02:32 263 46 gusting 4 22.8
2018-Apr-19 02:02 283 46 gusting 5 21.1
2018-Apr-19 01:32 315 46 19.4
2018-Apr-19 01:02 288 46 18.9
2018-Apr-19 00:55 315 46 gusting 1 18.3
2018-Apr-19 00:32 135 46 17.8
2018-Apr-19 00:25 135 46 17.2
2018-Apr-19 00:02 236 46 16.7
2018-Apr-18 23:32 135 46 15.6
2018-Apr-18 23:10 270 46 15.0
2018-Apr-18 23:02 270 46 14.4
2018-Apr-18 22:55 225 46 14.4
2018-Apr-18 22:32 270 46 13.3
2018-Apr-18 22:25 270 46 13.3
2018-Apr-18 22:02 270 46 12.8
2018-Apr-18 21:40 270 46 11.7
2018-Apr-18 21:32 270 46 11.7
2018-Apr-18 21:02 135 46 11.1
2018-Apr-18 20:40 135 46 11.1
2018-Apr-18 20:32 135 46 11.1
2018-Apr-18 20:25 135 46 11.1
2018-Apr-18 20:10 135 46 11.1
2018-Apr-18 20:02 135 46 11.1
2018-Apr-18 19:55 135 46 11.1
2018-Apr-18 19:40 135 46 11.1
2018-Apr-18 19:32 135 46 11.7
2018-Apr-18 19:10 135 46 11.7
2018-Apr-18 19:02 135 46 11.7
2018-Apr-18 18:55 135 46 11.7
2018-Apr-18 18:32 135 46 12.2
2018-Apr-18 18:25 135 46 12.2
2018-Apr-18 18:10 135 46 12.2
2018-Apr-18 18:02 135 46 12.2
2018-Apr-18 17:55 135 46 12.2
2018-Apr-18 17:32 135 46 12.2
2018-Apr-18 17:25 135 46 12.2
2018-Apr-18 17:10 135 46 12.8
2018-Apr-18 17:02 135 46 12.8
2018-Apr-18 16:55 135 46 12.8
2018-Apr-18 16:40 135 46 12.8
2018-Apr-18 16:32 135 46 12.8
2018-Apr-18 16:10 135 46 12.8
2018-Apr-18 16:02 135 46 12.8
2018-Apr-18 15:40 135 46 13.3
2018-Apr-18 15:32 135 46 13.3
2018-Apr-18 15:25 135 46 13.3
2018-Apr-18 15:10 135 46 13.3
2018-Apr-18 15:02 135 46 13.3
2018-Apr-18 14:40 135 46 13.9
2018-Apr-18 14:32 135 46 13.9
2018-Apr-18 14:10 135 46 13.9
2018-Apr-18 14:02 135 46 14.4
2018-Apr-18 13:55 135 46 14.4
2018-Apr-18 13:32 135 46 14.4
2018-Apr-18 13:02 225 46 15.0
2018-Apr-18 12:02 225 46 16.1
2018-Apr-18 11:32 225 46 16.7
2018-Apr-18 11:02 225 46 17.2
2018-Apr-18 10:32 225 46 17.8
2018-Apr-18 10:10 225 46 18.3
2018-Apr-18 10:02 225 46 18.9
2018-Apr-18 09:40 225 46 20.0
2018-Apr-18 09:32 225 46 20.0
2018-Apr-18 09:02 270 46 22.8
2018-Apr-18 08:40 270 46 23.3
2018-Apr-18 08:32 270 46 23.9
2018-Apr-18 08:10 270 46 25.0
2018-Apr-18 08:02 270 46 25.6
2018-Apr-18 07:32 225 46 25.6
2018-Apr-18 07:02 315 46 25.6
2018-Apr-18 06:32 254 46 24.4
2018-Apr-18 06:25 292 46 23.3
2018-Apr-18 06:02 292 46 gusting 1 21.1
2018-Apr-18 05:55 282 46 21.1
2018-Apr-18 05:32 271 46 gusting 4 21.7
2018-Apr-18 05:10 315 46 21.7
2018-Apr-18 05:02 270 46 21.7
2018-Apr-18 04:32 270 46 23.3
2018-Apr-18 04:02 270 46 21.7
2018-Apr-18 03:32 248 46 gusting 10 20.6
2018-Apr-18 03:02 248 46 gusting 13 20.0
2018-Apr-18 02:32 270 46 gusting 32 21.1
2018-Apr-18 02:02 299 46 gusting 1 18.3